TimeEDT,TemperatureF,Dew PointF,Humidity,Sea Level PressureIn,VisibilityMPH,Wind Direction,Wind SpeedMPH,Gust SpeedMPH,PrecipitationIn,Events,Conditions,WindDirDegrees,DateUTC
12:53 AM,78.1,73.9,87,29.95,9.0,ENE,5.8,-,N/A,,Partly Cloudy,60,2012-10-15 04:53:00
1:53 AM,78.1,73.9,87,29.93,9.0,East,5.8,-,N/A,,Partly Cloudy,80,2012-10-15 05:53:00
2:53 AM,77.0,73.0,88,29.91,10.0,East,3.5,-,N/A,,Clear,100,2012-10-15 06:53:00
3:53 AM,75.9,73.0,91,29.89,10.0,NE,3.5,-,N/A,,Scattered Clouds,40,2012-10-15 07:53:00
4:53 AM,75.0,73.0,94,29.88,10.0,East,4.6,-,N/A,,Partly Cloudy,80,2012-10-15 08:53:00
5:32 AM,77.0,73.4,89,29.88,6.0,NE,3.5,-,0.01,Rain,Light Rain,40,2012-10-15 09:32:00
5:53 AM,77.0,73.9,90,29.87,7.0,East,4.6,-,0.01,Rain,Light Rain,90,2012-10-15 09:53:00
6:12 AM,77.0,73.4,89,29.87,8.0,Calm,Calm,-,0.00,,Mostly Cloudy,0,2012-10-15 10:12:00
6:28 AM,77.0,73.4,89,29.87,8.0,NNE,4.6,-,0.00,,Mostly Cloudy,30,2012-10-15 10:28:00
6:41 AM,75.2,73.4,94,29.88,8.0,Calm,Calm,-,0.00,,Mostly Cloudy,0,2012-10-15 10:41:00
6:53 AM,75.9,73.0,91,29.88,8.0,NNE,3.5,-,0.00,,Mostly Cloudy,20,2012-10-15 10:53:00
7:13 AM,77.0,73.4,89,29.89,8.0,NE,4.6,-,N/A,,Mostly Cloudy,40,2012-10-15 11:13:00
7:46 AM,77.0,73.4,89,29.90,6.0,NNE,3.5,-,0.00,,Overcast,20,2012-10-15 11:46:00
7:53 AM,78.1,75.0,90,29.90,6.0,NE,3.5,-,0.00,,Overcast,40,2012-10-15 11:53:00
8:00 AM,78.8,75.2,89,29.90,7.0,Calm,Calm,-,N/A,,Overcast,0,2012-10-15 12:00:00
8:26 AM,77.0,73.4,89,29.91,9.0,SW,3.5,-,N/A,,Overcast,220,2012-10-15 12:26:00
8:44 AM,78.8,75.2,89,29.91,10.0,Calm,Calm,-,N/A,,Overcast,0,2012-10-15 12:44:00
8:53 AM,79.0,75.9,90,29.91,9.0,Calm,Calm,-,N/A,,Overcast,0,2012-10-15 12:53:00
9:40 AM,82.4,73.4,74,29.91,8.0,NE,11.5,-,N/A,,Mostly Cloudy,40,2012-10-15 13:40:00
9:53 AM,82.9,73.0,72,29.91,8.0,ENE,16.1,19.6,N/A,,Mostly Cloudy,60,2012-10-15 13:53:00
10:03 AM,82.4,73.4,74,29.91,8.0,ENE,12.7,-,N/A,,Scattered Clouds,60,2012-10-15 14:03:00
10:53 AM,84.0,73.0,69,29.92,9.0,NE,10.4,-,N/A,,Overcast,50,2012-10-15 14:53:00
11:53 AM,84.9,73.0,67,29.91,9.0,NE,10.4,-,N/A,,Scattered Clouds,50,2012-10-15 15:53:00
12:53 PM,86.0,72.0,63,29.90,10.0,ENE,13.8,19.6,N/A,,Scattered Clouds,70,2012-10-15 16:53:00
1:53 PM,86.0,71.1,61,29.87,10.0,ENE,11.5,-,N/A,,Partly Cloudy,60,2012-10-15 17:53:00
2:53 PM,87.1,71.1,59,29.84,10.0,ENE,12.7,16.1,N/A,,Partly Cloudy,70,2012-10-15 18:53:00
3:53 PM,87.1,72.0,61,29.82,10.0,NE,9.2,17.3,N/A,,Clear,50,2012-10-15 19:53:00
4:53 PM,86.0,71.1,61,29.82,10.0,ENE,13.8,-,N/A,,Clear,60,2012-10-15 20:53:00
5:53 PM,82.9,70.0,65,29.82,10.0,NE,11.5,-,N/A,,Clear,50,2012-10-15 21:53:00
6:53 PM,81.0,71.1,72,29.82,10.0,NE,8.1,-,N/A,,Clear,50,2012-10-15 22:53:00
7:53 PM,80.1,71.1,74,29.82,10.0,NE,8.1,-,N/A,,Clear,40,2012-10-15 23:53:00
8:53 PM,79.0,72.0,79,29.83,10.0,NE,5.8,-,N/A,,Clear,40,2012-10-16 00:53:00
9:53 PM,78.1,72.0,81,29.85,10.0,North,5.8,-,N/A,,Clear,360,2012-10-16 01:53:00
10:53 PM,78.1,72.0,81,29.85,10.0,NNW,3.5,-,N/A,,Clear,340,2012-10-16 02:53:00
11:53 PM,77.0,72.0,84,29.86,10.0,NNW,6.9,-,N/A,,Clear,340,2012-10-16 03:53:00